Regional Weather Roundup
Issued by NWS

Home | Current Version | Previous Version | Graphics & Text | Print | Product List | Glossary On
Versions: 1 2 3 4 5 6 7 8 9 10 11 12 13 14 15 16 17 18 19 20 21 22 23 24 25 26 27 28 29 30 31 32 33 34 35 36 37 38 39 40 41 42 43 44 45 46 47 48 49 50
000
ASUS43 KIND 062059
RWRIN

WEATHER ROUNDUP FOR INDIANA
NATIONAL WEATHER SERVICE INDIANAPOLIS IN
500 PM EDT WED MAY 06 2015

NOTE: "FAIR" INDICATES FEW OR NO CLOUDS BELOW 12,000 FEET WITH NO
SIGNIFICANT WEATHER AND/OR OBSTRUCTIONS TO VISIBILITY.

* - STATION DOES NOT REPORT WEATHER SUCH AS PRECIPITATION OR FOG.

+ - STATION NOT QUALITY CONTROLLED BY THE NATIONAL WEATHER SERVICE.
    USE DATA WITH CAUTION...ESPECIALLY DEWPOINT AND RELATIVE
    HUMIDITY OBSERVATIONS.

INZ001>003-010>013-019-020-062200-
NORTHWEST INDIANA

CITY           SKY/WX    TMP DP  RH WIND       PRES   REMARKS
GARY /AIRPORT/ MOSUNNY   66 N/A N/A NE8       30.11F HAZE

$$

LMZ046-743>745-062200-
SOUTHERN LAKE MICHIGAN

STATION/POSITION TIME  TEMP    WIND        PRES    WAVE
                       AIR SEA DIR/SP/G            HT
                 (UTC) (F)     (DEG/KT/KT) (MB)    (FT)
BURNS HARBOR     2000   57      70/ 10/ 11 1020.0F
MICHIGAN CITY    2000   55      20/ 11/ 12   N/A
5NW MICH CITY    2000   53 53   60/  8/ 10   N/A     1

$$

INZ004-005-014>016-021>024-062200-
NORTH CENTRAL INDIANA

CITY           SKY/WX    TMP DP  RH WIND       PRES   REMARKS
ELKHART        MOSUNNY   79  57  47 SE5       30.14F
GOSHEN         MOSUNNY   80  60  50 CALM      30.13F
SOUTH BEND     MOSUNNY   81  58  45 CALM      30.12F

$$

INZ006>009-017-018-025>027-062200-
NORTHEAST INDIANA

CITY           SKY/WX    TMP DP  RH WIND       PRES   REMARKS
ANGOLA *+      SUNNY     73  63  68 E6        30.16F
FORT WAYNE     MOSUNNY   82  61  48 CALM      30.15F

$$

INZ028-029-035-036-043>045-051>053-062200-
WEST CENTRAL INDIANA

CITY           SKY/WX    TMP DP  RH WIND       PRES   REMARKS
GREENCASTLE +  SUNNY     82  46  28 W5        30.11F
LAFAYETTE      MOSUNNY   82  53  36 S8        30.09F
TERRE HAUTE    MOSUNNY   84  54  35 S10       30.09F

$$

INZ030>032-037>040-046>048-054>057-064-065-062200-
CENTRAL INDIANA

CITY           SKY/WX    TMP DP  RH WIND       PRES   REMARKS
COLUMBUS       PTSUNNY   84  43  23 CALM      30.12F
GREENWOOD *+   MOSUNNY   84  45  24 W8        30.13F
INDIANAPOLIS   MOSUNNY   83  53  35 SW6       30.11F
-EAGLE CREEK   PTSUNNY   83  53  35 VRB6      30.11F
KOKOMO *+      SUNNY     82  55  39 NE3       30.11F
MT COMFORT *+  MOSUNNY   86  23  10 S8        30.12F
SHELBYVILLE    MOSUNNY   85  50  29 VRB3      30.12F

$$

INZ033-034-041-042-049-050-058-059-062200-
EAST CENTRAL INDIANA

CITY           SKY/WX    TMP DP  RH WIND       PRES   REMARKS
MUNCIE         PTSUNNY   84  52  33 W7        30.13F

$$

INZ060-061-067>069-081>083-085>088-062200-
SOUTHWEST INDIANA

CITY           SKY/WX    TMP DP  RH WIND       PRES   REMARKS
EVANSVILLE     SUNNY     85  53  33 SE10      30.09F
HUNTINGBURG *+ CLOUDY    79  57  47 SE9       30.11F

$$

INZ062-063-066-070>080-084-089>092-062200-
SOUTH CENTRAL AND SOUTHEAST INDIANA

CITY           SKY/WX    TMP DP  RH WIND       PRES   REMARKS
BLOOMINGTON    SUNNY     83  49  30 VRB5      30.11F
MADISON *+     PTSUNNY   86  45  23 SW6       30.14F
SEYMOUR +      MOSUNNY   86  55  35 CALM      30.11F

$$




USA.gov is the U.S. government's official web portal to all federal, state and local government web resources and services.